Theta_e
343 345 347 348 349 350 350 351 352 353 354 355 355 355 356 355 351 350 351 354 355 354 354 351 348 347 347 348 348 348 349 349 349 349 349 349 350 351 351 351 351 350 350 351 352 354 354 353 353 353 353 352 353 353 352 352 353 353 353 352 351 350 349 351 352 351 349 348 349 348 348 349 350 350 350 349 349 349 348 348 348 348 348 347 348
343 343 345 346 348 349 350 351 352 353 354 355 355 355 355 354 350 349 351 353 353 353 353 351 348 348 348 348 348 348 348 348 347 348 349 349 349 350 350 351 350 351 351 350 351 353 353 354 353 353 352 352 352 352 351 351 352 353 353 354 353 352 351 352 352 351 350 349 348 348 349 349 348 348 348 348 348 349 348 348 348 349 348 347 347
344 342 344 345 347 349 350 351 351 352 354 354 354 355 354 352 350 351 351 352 353 352 352 350 349 348 348 348 349 349 349 349 349 349 349 349 349 349 350 350 350 351 351 349 350 350 352 353 351 351 352 351 352 352 350 350 351 353 353 353 354 354 352 351 351 351 351 349 349 351 351 351 352 348 345 346 346 347 348 347 348 348 348 347 347
344 342 344 345 348 349 350 350 352 351 353 353 354 354 353 352 351 352 352 352 352 352 351 351 349 349 349 348 349 349 351 351 352 352 351 351 351 351 349 349 350 350 350 350 350 350 351 351 350 350 351 351 352 352 352 350 352 353 353 354 355 354 353 351 350 349 350 350 350 353 349 351 358 352 344 344 343 345 346 346 347 347 346 347 347
343 342 343 345 347 348 348 349 351 351 352 353 353 353 353 353 352 351 352 351 351 351 351 350 350 349 349 349 350 350 351 352 352 353 353 353 353 352 350 350 349 349 350 351 351 350 350 351 350 349 349 351 352 353 353 352 353 353 353 354 355 354 354 352 350 349 350 349 349 352 352 355 361 351 345 346 341 341 344 344 345 345 345 345 346
342 342 343 345 346 346 347 349 350 351 351 352 353 353 353 353 352 352 351 350 350 351 350 351 351 351 350 350 350 351 351 352 352 353 354 354 355 353 352 351 349 349 350 351 351 351 351 350 350 349 348 350 352 352 353 353 353 353 354 355 355 356 355 353 350 348 348 349 348 349 350 353 354 349 347 351 346 341 341 342 344 344 344 344 344
339 342 343 345 345 345 346 348 349 350 351 352 352 352 353 352 352 352 351 351 351 351 351 352 352 351 351 351 351 351 351 352 352 353 354 355 355 355 354 353 351 350 349 350 351 351 351 350 350 350 347 348 352 352 353 354 355 354 355 356 356 356 355 353 350 348 347 348 348 348 347 347 348 348 350 352 351 347 341 339 341 342 342 343 342
339 342 344 344 344 344 345 347 349 350 350 351 351 352 352 352 352 351 351 350 350 351 351 352 352 352 352 352 352 351 351 352 352 354 354 355 356 355 354 354 352 351 349 349 350 351 351 350 350 350 349 349 352 351 351 353 355 355 355 356 356 355 354 353 351 349 350 349 347 347 346 346 346 346 348 347 349 355 351 345 342 341 340 341 341
339 343 343 344 344 344 345 347 348 349 350 351 351 351 351 352 350 351 351 351 350 350 350 351 351 351 352 352 352 352 351 352 353 354 355 356 355 355 354 353 352 352 351 350 350 351 351 350 350 350 350 350 351 350 350 352 353 355 355 355 355 355 354 353 352 351 353 351 349 347 346 347 346 344 347 347 347 353 356 350 346 343 341 340 341
338 343 343 342 344 344 345 348 348 348 349 350 351 351 351 351 350 350 350 350 350 349 349 350 351 350 351 353 352 352 352 353 353 354 355 355 355 355 356 354 352 353 353 354 353 352 351 351 350 349 350 350 351 352 352 352 353 354 355 355 355 355 354 353 352 352 353 352 350 351 349 349 349 348 349 350 346 345 349 347 345 345 343 341 340
340 342 343 342 343 345 345 347 347 347 348 350 350 350 350 351 350 350 349 349 349 349 348 349 350 350 350 352 352 353 353 353 355 355 356 356 354 355 356 354 353 355 356 356 355 355 353 351 350 349 350 350 352 354 355 354 354 355 355 354 355 355 354 353 353 353 353 352 351 352 352 351 351 350 349 351 348 344 346 345 344 346 345 341 341
346 341 343 343 343 345 346 346 347 347 347 349 350 350 351 351 350 350 350 350 349 347 347 348 350 350 349 351 351 352 353 353 354 355 356 356 355 356 356 354 354 356 356 356 355 355 354 351 351 351 351 352 353 354 355 355 355 355 354 355 355 355 353 352 352 352 352 350 351 353 353 352 352 350 349 350 347 343 343 343 343 348 348 343 341
356 347 343 343 343 344 345 346 347 347 346 348 350 350 350 351 351 350 350 350 349 347 346 349 351 350 349 350 351 351 352 352 353 354 355 355 355 356 355 353 355 356 357 357 356 356 354 351 351 353 353 352 352 353 355 356 355 355 355 355 355 355 354 353 352 352 352 352 352 354 353 354 353 351 350 350 346 343 342 343 343 347 348 347 345
367 357 344 342 343 344 345 346 347 346 346 348 350 350 350 351 351 350 350 350 349 347 347 350 351 350 350 350 351 351 351 351 351 352 353 353 354 355 355 354 355 356 355 356 355 356 355 353 352 353 354 354 353 354 354 356 355 355 356 356 355 355 354 353 353 352 352 352 353 354 354 353 352 351 350 349 349 347 345 345 344 344 346 347 347
366 362 354 345 342 343 345 345 346 347 347 348 350 350 350 351 351 350 350 350 349 348 348 350 349 350 351 351 353 352 352 352 353 352 352 352 353 355 355 353 353 354 354 354 354 355 355 354 352 352 354 355 355 355 355 356 356 356 356 355 355 355 355 354 353 351 351 352 353 354 355 355 353 351 349 349 349 349 349 348 345 346 350 349 348
362 363 364 354 345 344 344 344 346 347 347 347 349 350 350 351 351 350 350 350 350 349 348 349 349 350 351 351 354 354 354 354 354 353 353 353 353 353 354 354 352 352 353 353 354 355 355 354 352 351 353 355 355 355 355 356 357 356 356 356 355 356 355 354 353 352 352 352 352 354 355 356 354 351 350 348 347 349 350 350 348 348 350 354 358
361 361 362 355 349 347 344 344 345 347 347 348 349 350 349 350 350 351 350 350 350 350 349 349 349 350 350 350 353 355 356 354 354 354 353 353 353 352 353 353 353 353 353 353 354 355 354 353 351 351 354 356 355 354 354 356 357 358 357 357 356 356 356 355 355 354 354 353 353 354 356 356 355 354 351 349 349 350 350 351 351 348 347 352 363
361 360 357 352 350 350 347 345 345 345 347 348 349 350 350 350 350 350 351 351 350 350 350 350 349 349 349 349 351 353 355 355 354 354 353 352 352 352 352 353 353 353 352 352 353 354 355 354 353 353 354 355 356 355 354 355 356 357 358 359 358 357 357 356 357 356 354 355 354 354 356 357 356 355 353 351 351 351 351 352 352 350 348 349 353
360 361 360 355 350 351 351 348 347 346 346 347 348 350 350 350 350 351 350 351 351 351 351 351 351 350 350 349 349 351 353 353 353 352 352 353 353 352 352 352 353 354 353 353 353 354 355 354 354 354 355 355 356 357 356 355 355 355 357 358 358 358 357 356 357 356 356 357 356 355 356 356 357 356 354 353 352 352 352 352 353 351 349 350 349
358 359 359 356 352 352 351 350 351 349 347 347 348 350 351 351 351 352 351 351 352 353 352 352 351 350 350 350 348 348 351 352 353 352 352 353 353 353 352 353 354 355 355 354 354 354 355 355 355 355 355 355 355 356 356 357 357 355 355 355 356 355 355 354 356 357 358 359 358 357 356 356 357 357 355 354 353 351 351 351 352 352 351 350 350
357 358 358 357 354 353 351 351 352 352 352 351 349 349 351 352 352 353 352 351 352 353 353 352 353 352 352 350 348 347 349 352 353 353 353 353 353 353 353 354 355 356 357 356 356 355 355 356 356 356 356 356 355 355 356 357 358 355 353 353 354 354 353 352 355 357 358 359 358 357 356 356 357 357 356 356 354 354 353 351 351 352 353 352 351
355 356 356 356 356 354 353 352 353 353 353 353 353 353 352 352 352 353 353 352 352 353 352 352 352 353 352 351 349 347 348 351 352 353 354 353 354 353 354 354 355 356 357 357 357 356 356 357 358 356 356 356 355 354 354 356 357 354 352 351 353 355 355 354 355 355 356 357 358 356 355 355 357 358 357 357 357 356 356 354 352 351 352 352 353
353 353 354 355 355 355 355 354 353 353 353 353 354 354 353 353 352 353 354 353 353 353 354 353 354 354 353 353 352 350 348 349 351 353 353 354 353 354 354 354 355 356 357 357 357 357 356 356 356 356 355 355 355 354 354 355 356 354 353 352 354 355 355 355 354 354 355 356 357 356 354 354 356 358 358 357 357 358 358 356 354 352 352 351 352
351 353 353 353 353 353 353 352 353 353 353 352 353 354 354 353 352 352 354 355 355 355 356 356 356 355 355 354 354 353 351 350 350 351 352 352 353 353 354 355 356 356 356 356 356 357 356 356 355 354 354 354 354 354 354 355 355 355 354 353 354 355 355 355 354 353 355 357 358 357 355 354 354 356 356 357 358 358 357 357 356 355 354 353 353
347 349 349 349 350 350 349 349 351 352 352 352 352 352 352 353 353 354 354 356 356 356 357 358 357 357 356 355 355 355 354 353 352 352 352 352 352 352 353 355 355 355 355 355 355 356 356 355 354 353 353 353 354 354 354 354 354 354 354 354 353 354 354 353 353 353 353 354 356 356 355 354 354 354 353 354 355 356 356 355 355 356 356 355 355
343 343 344 345 347 348 349 349 349 350 352 352 352 350 349 350 352 353 353 355 356 355 357 358 358 358 357 357 356 355 355 355 354 354 354 353 353 353 353 354 354 353 354 354 353 354 354 354 354 353 352 352 352 353 353 353 353 354 353 353 353 353 352 352 352 352 352 352 352 353 354 353 354 353 352 351 352 353 353 354 354 354 354 355 355
340 341 342 342 342 344 347 348 349 350 350 350 349 349 350 350 351 351 351 353 356 355 355 356 357 358 358 358 357 357 357 357 357 356 355 355 354 354 354 354 353 353 354 354 352 352 351 352 353 353 352 351 351 351 352 352 351 351 351 352 352 353 353 351 351 351 351 351 351 350 350 351 352 353 352 351 351 351 352 352 353 352 352 353 354
338 340 341 341 340 341 343 346 348 349 350 350 350 350 351 352 352 352 351 352 354 353 352 355 356 356 356 357 357 356 356 356 357 356 356 356 355 355 355 354 354 355 354 354 353 352 350 350 351 351 351 351 350 351 351 350 349 349 349 350 351 352 352 352 351 350 349 350 350 350 351 350 351 351 351 351 352 352 352 351 349 350 351 351 351
337 337 337 338 339 339 340 341 343 345 347 349 349 350 351 351 351 352 351 351 352 351 351 353 353 352 352 354 354 354 355 355 356 356 356 356 355 355 355 355 355 355 355 355 353 352 351 350 350 350 350 351 351 350 350 350 349 349 349 349 350 350 350 350 350 350 349 349 348 348 349 349 350 350 350 350 350 351 352 350 347 347 349 350 350
336 335 335 336 337 338 338 339 340 341 343 345 346 347 347 348 349 349 350 351 352 353 351 351 351 349 349 349 350 351 351 352 353 354 353 354 354 354 353 354 355 354 353 352 352 351 351 351 350 350 350 350 350 350 349 349 349 348 348 349 349 349 349 349 349 349 348 347 347 347 346 346 348 348 348 348 348 347 347 347 345 346 347 348 350
335 335 334 334 335 336 336 337 338 339 341 342 342 343 344 344 345 345 345 348 350 351 351 350 350 349 349 349 349 349 349 350 351 351 351 350 351 352 351 351 352 353 352 352 351 350 350 350 350 350 350 350 350 350 349 348 348 348 348 347 348 348 348 349 348 348 348 347 347 346 346 346 345 346 347 348 348 347 346 346 345 345 346 347 348
334 334 334 333 333 334 335 336 338 338 340 340 340 340 341 342 342 340 340 342 344 345 345 346 346 347 349 351 352 351 352 351 351 351 351 350 349 350 350 349 349 350 352 351 351 351 350 349 350 350 350 350 350 349 349 349 348 348 348 348 347 347 349 348 348 348 347 346 346 346 347 347 346 346 346 347 348 348 347 346 346 345 346 347 347
333 333 333 332 331 331 334 336 337 338 337 337 337 338 339 339 339 339 339 339 339 339 340 341 341 342 344 346 349 350 351 352 351 351 351 351 349 350 350 349 349 349 352 353 353 352 352 351 350 349 349 349 349 349 349 349 348 349 348 348 347 347 348 349 348 348 348 347 347 347 346 346 346 346 347 347 347 347 347 346 347 346 346 346 345
331 331 330 328 327 328 332 335 336 335 334 332 332 334 334 334 333 334 336 337 337 337 337 338 339 338 339 341 342 344 345 346 347 347 348 349 349 349 349 349 350 351 351 352 353 354 354 354 352 350 349 349 348 348 348 348 348 347 347 348 348 349 348 349 349 349 348 348 348 347 347 347 346 346 346 347 347 347 346 346 346 347 346 345 345
331 330 328 325 324 326 331 334 335 335 334 333 332 331 331 330 329 330 331 332 334 335 335 336 338 339 340 340 340 341 343 343 344 345 345 346 346 346 345 346 348 351 351 350 352 354 354 354 354 353 352 350 348 348 348 348 348 347 348 348 348 348 349 349 350 349 349 350 349 348 348 348 347 347 346 347 348 348 348 347 346 346 346 345 344
327 326 325 324 324 327 330 333 333 334 335 333 332 331 331 331 331 330 329 329 330 332 333 333 334 336 337 337 336 336 339 341 341 342 342 343 344 344 343 343 345 347 350 350 351 353 354 354 354 353 353 353 352 351 350 349 350 350 350 350 349 350 349 349 350 350 349 349 349 349 349 348 348 348 347 347 348 349 349 348 347 346 345 345 344
322 323 324 324 326 329 331 332 332 333 334 334 333 332 332 331 332 331 331 330 329 329 331 331 331 331 331 332 332 334 334 335 336 337 338 340 342 344 344 344 343 345 348 350 351 353 353 354 354 354 354 354 353 353 352 352 351 351 351 351 351 351 351 350 349 349 349 349 349 349 349 349 349 349 348 349 348 349 349 348 347 346 346 345 345
322 322 323 324 326 328 329 330 330 329 330 332 331 330 330 330 330 331 331 331 330 329 329 330 331 330 328 327 328 330 331 332 333 333 334 335 338 340 343 345 346 347 347 349 350 353 354 355 355 355 355 355 355 355 355 355 355 354 354 353 353 353 353 353 352 351 350 349 349 349 349 349 349 349 349 349 349 349 349 349 348 347 345 345 345
321 322 322 323 324 325 327 327 327 326 326 327 328 327 327 326 327 329 329 328 327 327 327 328 331 331 329 327 325 325 327 331 331 331 332 333 334 337 341 346 349 348 346 345 347 350 353 353 353 355 355 355 355 355 356 356 356 355 355 354 353 353 353 353 353 353 352 352 351 351 351 350 349 350 350 350 350 350 349 349 349 347 345 345 346
321 321 322 322 322 322 323 323 323 324 324 325 326 325 325 324 324 326 326 325 324 325 327 329 330 330 330 328 326 323 324 327 329 329 331 332 335 339 343 346 346 344 341 340 339 341 341 341 342 344 344 345 347 349 351 354 355 355 355 355 354 353 353 353 353 352 352 353 353 352 352 352 352 352 352 352 351 350 349 348 348 347 345 346 347
320 321 321 321 321 321 321 320 321 322 322 323 324 323 323 322 322 322 322 322 323 324 326 328 329 329 328 328 328 325 323 324 327 328 331 333 338 344 347 346 344 340 336 335 335 335 333 331 331 332 333 334 337 338 340 343 346 349 352 353 354 354 353 353 353 353 353 353 353 354 354 354 353 353 353 352 352 352 351 349 349 347 347 347 348
320 320 320 320 320 319 320 319 319 320 320 321 321 321 320 320 320 320 319 320 322 322 324 325 326 327 327 328 328 326 323 324 326 328 330 332 334 339 342 341 338 334 332 333 333 333 332 331 330 331 331 332 332 332 331 332 334 339 344 347 348 348 348 349 350 351 353 353 354 354 354 353 352 352 352 352 352 352 353 352 352 351 350 350 349
319 320 319 319 319 319 318 318 318 318 318 318 318 318 318 318 318 319 318 318 320 321 322 323 324 324 325 327 328 327 325 325 326 328 330 330 330 331 332 331 331 331 330 331 332 332 332 331 331 331 331 332 332 330 328 329 330 333 336 339 341 342 342 343 344 345 348 351 352 353 352 352 352 352 352 353 353 353 353 353 353 353 353 353 353
319 319 318 319 318 318 317 317 317 317 317 316 317 317 317 317 318 318 318 317 317 318 319 321 322 323 324 325 326 327 326 325 326 327 328 329 328 327 326 325 326 328 330 330 330 331 331 331 331 332 331 332 332 330 328 328 329 331 331 334 336 338 339 340 340 341 342 345 348 350 350 351 352 352 354 354 355 355 353 353 353 352 353 353 354
318 318 318 318 317 317 317 316 317 317 316 317 317 317 317 318 318 318 318 318 317 316 316 318 320 321 322 323 324 326 326 326 326 327 328 328 327 326 324 322 322 324 328 329 329 329 329 329 329 329 329 329 329 327 326 327 330 331 331 332 334 336 337 338 339 340 340 342 343 345 346 348 349 351 352 353 354 355 354 354 353 353 352 353 352
318 318 318 317 317 316 316 316 316 317 316 316 316 316 316 317 317 318 318 318 318 317 317 317 318 319 320 321 322 324 325 326 326 326 327 327 326 324 323 321 320 322 326 329 329 328 328 327 327 325 324 324 322 322 325 328 330 330 330 331 334 335 336 337 338 340 341 341 342 343 343 344 346 347 349 350 351 352 352 353 353 353 353 353 353
317 317 316 316 316 315 315 316 316 316 316 316 315 315 316 316 317 317 318 318 318 318 318 318 318 318 319 320 321 322 323 325 326 326 326 326 325 323 322 321 320 323 326 328 327 326 326 325 324 321 320 320 321 323 327 329 329 328 329 330 332 333 335 337 339 339 338 338 340 342 343 344 344 344 345 346 347 348 349 350 351 351 351 352 352
316 316 315 315 315 315 316 316 315 315 315 315 315 316 317 317 317 317 317 317 317 318 318 318 319 318 318 319 319 320 322 324 325 326 326 325 324 323 322 321 322 325 327 326 325 325 324 322 320 320 320 322 324 326 328 328 328 329 329 329 331 333 336 336 335 334 333 334 335 339 342 344 345 344 345 345 345 346 346 346 347 348 348 349 350
315 315 315 314 314 315 316 316 315 315 315 315 317 318 319 318 318 318 318 318 318 318 318 318 319 318 318 318 318 319 320 322 324 325 325 324 323 323 322 321 322 325 326 325 324 324 323 321 319 320 322 324 325 327 328 328 329 330 331 331 332 333 333 332 331 330 330 330 333 337 341 342 343 343 344 345 345 346 346 346 347 347 348 348 349
315 315 314 314 314 315 315 315 315 315 316 317 318 319 319 319 318 318 318 318 318 319 318 318 319 319 319 319 318 319 320 321 323 325 325 324 323 323 322 321 322 324 325 325 324 324 322 320 319 320 323 324 325 326 327 328 329 330 330 331 331 330 329 328 328 328 329 330 333 337 339 340 341 342 342 343 345 345 346 347 347 348 348 349 350
314 314 313 314 315 315 315 315 315 315 317 318 318 318 318 317 317 317 317 317 318 318 318 319 319 320 321 321 321 321 322 322 323 325 325 325 324 324 323 323 323 324 324 324 324 322 320 319 319 320 323 326 326 325 326 326 327 327 327 328 327 326 326 327 327 328 330 332 334 336 337 337 338 339 340 341 342 343 344 346 347 348 349 349 350
Wind_Speed
16 23 26 26 27 27 27 26 26 25 24 25 25 25 24 23 22 21 21 21 20 20 19 18 18 16 14 15 16 17 17 16 16 15 14 15 14 13 12 11 9 8 7 7 7 6 6 6 7 6 6 5 5 4 4 3 3 2 1 1 3 4 4 3 3 4 4 5 6 7 8 7 7 8 10 11 12 14 13 14 14 14 14 13 13
14 19 22 25 25 26 26 25 25 25 24 26 26 25 25 23 23 23 23 23 21 20 18 18 19 16 15 17 16 15 16 15 15 14 13 13 12 12 11 10 9 7 8 9 9 8 7 7 7 7 6 6 6 5 5 5 4 3 1 1 2 4 5 4 4 4 4 3 2 5 7 7 7 8 10 12 13 14 14 15 15 16 15 14 14
11 14 19 23 24 25 25 24 26 27 26 27 26 25 25 24 24 24 24 23 21 20 19 18 18 15 14 16 15 15 15 13 12 12 11 10 10 10 10 10 10 9 9 10 10 10 8 7 7 7 7 7 7 6 6 6 5 4 2 2 3 5 6 5 4 2 4 4 2 3 3 4 5 6 9 11 12 13 14 15 16 16 16 14 15
12 13 15 20 23 24 24 25 26 26 26 26 26 25 25 25 25 25 23 22 20 20 20 19 16 13 13 14 14 14 14 13 12 12 11 10 9 9 9 9 10 11 10 10 10 9 9 8 7 8 8 8 7 6 6 6 5 4 3 2 4 6 7 6 3 3 5 4 2 1 1 2 2 4 9 10 10 11 13 14 15 16 16 15 15
13 13 14 18 22 23 25 26 26 26 26 27 28 27 26 26 26 25 23 21 20 20 20 19 16 14 14 14 15 14 13 14 14 13 12 12 12 11 11 10 10 11 11 10 9 9 8 8 8 8 9 9 7 6 6 6 6 5 3 2 4 5 7 7 4 4 5 4 2 2 2 2 2 4 8 8 6 8 11 13 14 15 15 14 14
13 14 15 17 21 23 24 26 26 26 28 29 30 29 27 27 26 25 23 21 20 20 20 18 16 16 16 16 16 15 14 16 16 15 14 15 14 13 12 11 11 11 11 9 8 8 9 9 9 9 10 9 8 7 7 8 7 6 4 3 2 4 6 7 5 4 3 3 4 4 4 4 5 5 4 3 6 6 6 9 13 14 14 14 14
11 13 15 18 21 22 22 25 28 29 29 30 29 29 28 28 27 27 25 22 21 20 20 18 16 16 17 17 17 17 17 17 17 15 14 14 14 13 13 12 11 11 11 9 9 9 9 9 9 9 10 10 9 8 9 9 8 6 5 3 2 3 4 5 5 3 2 2 3 5 6 5 6 5 2 2 5 4 5 7 8 10 12 13 13
11 12 13 17 22 23 24 26 29 30 30 29 28 29 29 28 27 27 26 24 23 22 21 20 17 16 18 17 17 17 17 16 15 15 14 13 13 12 12 11 11 11 10 9 9 9 9 9 10 10 10 11 10 9 9 9 9 7 5 3 1 2 3 4 3 2 3 3 3 5 6 6 5 3 2 4 2 1 6 7 7 8 10 11 12
12 13 14 18 23 25 27 28 29 29 30 30 30 30 30 29 28 27 27 26 25 23 23 22 19 16 17 19 18 17 17 15 15 15 15 14 13 12 11 10 11 11 10 9 9 9 9 9 10 11 11 11 11 10 9 9 9 8 6 4 2 2 3 4 3 2 4 5 6 8 9 11 9 4 6 10 3 1 3 3 6 8 7 9 10
10 12 16 21 26 27 28 28 27 29 30 31 31 30 30 29 28 27 27 25 25 25 23 23 21 17 17 19 19 19 18 17 15 16 15 14 13 13 12 11 12 11 10 9 8 9 9 10 10 11 11 11 11 9 8 9 9 8 6 5 3 3 4 3 3 2 3 5 8 10 12 13 11 6 10 13 5 2 2 4 6 6 6 9 9
7 10 15 22 26 28 27 27 27 28 28 29 29 29 30 30 29 28 26 24 23 25 24 24 21 18 17 18 20 21 19 18 17 17 17 16 15 14 13 13 13 12 11 10 9 9 9 10 10 11 11 11 11 9 8 8 8 7 7 6 4 4 5 4 4 3 3 4 7 10 11 11 10 7 11 13 6 3 3 5 7 6 6 8 7
3 7 11 16 20 22 24 25 26 26 26 27 28 29 30 31 30 29 27 24 23 24 25 24 21 19 17 18 20 21 20 19 19 18 18 18 16 15 15 15 15 13 12 12 11 10 10 10 11 11 11 11 11 9 8 8 8 7 7 7 6 6 6 6 5 5 4 3 5 8 9 10 10 9 12 14 8 4 3 4 6 7 5 6 7
3 5 8 10 14 18 22 24 24 26 27 28 29 29 30 31 31 30 29 26 24 25 27 25 21 20 18 18 20 20 20 19 20 19 19 18 17 16 16 17 17 15 14 14 12 11 11 11 12 12 12 12 11 10 8 8 9 9 8 8 8 7 7 7 7 6 5 4 5 7 8 8 9 10 12 14 10 5 3 4 4 5 5 5 7
4 5 7 9 14 20 23 25 26 27 28 29 30 30 30 30 31 31 30 28 25 26 28 26 22 20 19 19 19 19 19 19 19 20 20 19 18 18 17 17 18 17 16 14 13 12 11 11 12 12 12 11 11 10 9 8 9 10 9 9 9 8 8 8 8 8 6 5 5 6 7 7 8 9 10 12 11 9 7 6 5 5 5 5 6
3 5 5 7 15 21 23 26 28 29 29 30 30 31 31 31 32 32 31 29 27 27 28 27 24 21 20 19 18 18 19 18 18 19 20 20 20 19 18 18 18 17 16 14 13 12 12 11 12 12 12 11 11 10 9 9 9 10 10 9 8 7 7 7 8 8 7 7 5 6 7 6 6 7 8 9 9 9 8 7 6 5 4 5 5
1 4 5 5 10 17 19 22 25 28 30 30 30 31 32 32 33 33 31 31 29 28 29 28 26 23 22 21 19 19 19 19 19 19 19 20 20 20 20 18 17 16 16 14 13 13 13 12 13 12 12 12 11 11 10 10 10 9 9 9 8 7 7 7 6 6 7 6 6 6 7 6 6 7 7 7 8 8 6 7 7 6 4 4 5
2 3 4 6 10 13 17 20 22 24 28 30 31 34 34 34 34 33 31 31 31 30 29 29 27 26 24 23 22 21 20 20 20 20 19 18 19 20 20 19 18 16 15 15 14 13 13 13 14 13 12 12 11 11 11 11 10 9 8 8 8 8 8 7 6 6 7 6 7 7 7 7 7 7 7 6 7 7 6 6 8 6 4 2 1
3 3 4 7 12 14 17 20 22 24 26 29 32 34 34 33 33 33 32 32 33 32 31 30 29 28 27 26 25 24 22 21 20 20 20 18 19 20 20 20 19 18 16 15 14 14 13 14 15 14 13 12 12 12 12 12 11 10 9 9 9 9 9 9 8 8 8 8 8 8 8 8 7 8 7 6 6 7 7 6 6 6 5 2 2
5 4 4 5 10 13 15 17 20 22 25 28 30 31 30 29 30 32 33 34 34 33 33 32 30 30 28 27 27 27 25 22 20 19 20 21 20 19 20 20 19 18 18 16 16 16 15 15 15 15 14 13 13 13 12 12 12 12 12 12 11 11 11 11 10 10 9 8 9 9 10 9 7 7 7 6 6 7 7 7 6 6 6 4 3
5 5 4 5 8 11 13 15 17 19 21 24 26 27 27 26 26 28 29 28 28 29 31 31 31 30 29 28 27 28 28 25 21 20 21 22 22 21 20 20 19 19 18 18 18 17 17 17 17 16 16 15 15 14 13 13 12 13 13 13 12 12 12 12 11 11 10 9 9 10 10 9 8 7 7 7 7 8 8 7 7 7 5 5 5
5 4 4 5 8 9 11 14 15 15 15 18 22 25 26 24 25 26 26 26 26 28 28 29 31 30 30 29 27 28 30 27 23 21 21 22 23 22 21 21 20 19 19 19 20 20 19 18 18 18 18 17 17 16 15 14 13 14 14 13 12 12 12 13 12 12 11 11 10 10 11 10 8 8 8 8 8 9 10 9 8 8 7 7 8
7 6 5 6 8 9 10 12 13 12 13 13 14 17 19 19 19 20 22 25 27 28 30 30 31 31 31 30 28 28 30 29 26 23 22 22 22 23 22 21 22 21 20 20 20 21 21 20 20 19 19 19 18 17 16 15 15 14 14 14 13 12 13 13 13 13 12 12 11 12 12 11 9 9 9 8 9 10 10 10 10 10 10 9 9
7 7 6 7 9 10 12 11 11 11 12 14 14 16 19 22 22 20 20 22 23 25 28 29 28 28 28 28 27 27 28 29 28 26 25 24 23 23 22 22 22 22 22 22 21 21 22 22 21 20 19 20 20 19 17 16 16 15 15 15 14 14 14 14 14 14 13 12 12 12 12 12 11 11 11 10 10 10 10 10 9 9 10 10 10
6 6 7 9 11 12 14 13 11 11 12 13 13 16 18 20 23 24 21 19 19 20 21 22 23 25 27 27 26 25 26 28 29 28 27 26 25 25 23 23 23 23 23 24 23 23 22 23 22 21 21 21 21 21 19 18 18 17 17 16 15 15 15 15 16 16 15 14 14 14 13 12 13 14 14 13 12 11 11 10 10 9 10 11 11
6 6 7 9 10 12 14 13 11 11 11 11 11 12 11 11 15 19 16 16 19 19 18 20 23 25 27 27 25 25 25 27 28 28 28 28 27 26 26 25 25 24 24 25 25 24 24 24 25 24 23 23 23 22 21 21 20 19 19 18 17 17 17 17 17 17 17 17 16 16 15 13 14 15 15 15 15 14 13 12 12 11 11 12 12
6 6 8 8 7 8 12 12 9 7 8 9 10 11 11 11 13 15 15 18 21 20 18 21 25 26 26 27 27 27 28 28 28 27 27 27 27 27 27 27 27 26 26 26 26 26 26 26 26 26 26 25 25 24 24 23 22 22 22 21 20 20 19 18 18 18 17 18 18 18 18 16 16 17 17 16 15 15 14 13 13 13 13 14 14
6 7 7 7 7 8 11 13 10 6 4 3 7 9 10 12 12 13 16 21 23 19 15 16 22 24 26 27 28 29 29 28 27 26 25 25 26 27 27 27 27 27 27 28 28 28 28 28 28 27 27 27 26 26 25 24 23 23 23 23 22 22 22 21 21 20 19 18 18 19 19 18 18 18 18 17 16 15 15 15 16 16 16 16 17
7 8 7 7 8 10 13 14 11 8 6 5 7 9 11 12 12 11 13 17 17 16 15 17 20 20 23 26 29 28 26 24 23 23 23 24 24 26 27 28 28 28 29 29 29 29 29 28 28 28 28 28 27 27 27 26 24 23 23 24 24 24 24 24 23 23 21 21 20 20 20 20 20 19 19 18 17 16 17 17 18 18 18 19 19
9 8 8 8 8 10 13 14 12 12 12 12 13 13 13 13 12 10 9 10 10 9 11 17 20 18 18 22 25 26 24 22 21 21 21 21 21 22 24 28 30 30 29 29 28 29 30 30 30 29 29 29 29 29 28 28 27 25 24 24 25 25 25 26 26 25 24 24 23 22 22 22 21 21 20 20 19 19 19 20 19 19 20 21 22
9 8 7 8 9 11 14 15 15 14 14 15 16 15 14 13 11 8 7 6 8 9 9 11 13 15 17 19 20 20 20 20 21 22 21 20 19 19 19 23 27 29 29 28 28 29 30 31 32 31 30 30 30 30 30 29 29 28 27 27 27 27 27 27 28 28 28 27 26 25 25 24 23 22 22 22 22 21 21 21 21 21 22 23 24
8 8 7 7 8 11 14 15 15 15 16 17 17 17 17 16 14 11 11 10 8 8 7 6 6 7 11 14 13 12 11 12 14 17 18 19 19 19 17 18 21 23 23 23 23 25 27 29 31 32 31 31 31 32 31 31 30 30 29 29 29 29 29 29 30 30 30 30 29 28 27 26 25 25 24 24 24 23 23 22 22 22 23 24 26
8 8 8 7 7 10 14 15 16 16 17 17 17 19 19 18 18 15 13 13 13 11 11 10 8 7 6 5 4 3 3 2 3 6 10 15 17 18 19 22 25 23 20 19 18 19 21 24 26 29 30 30 31 32 31 31 31 31 31 31 31 32 31 31 32 31 32 31 31 30 30 29 28 28 27 27 27 27 26 25 25 25 24 25 26
8 8 8 8 8 12 14 16 17 19 19 18 19 20 19 18 19 18 16 16 16 15 15 13 11 11 11 11 11 9 7 4 3 3 3 7 11 12 14 20 25 24 20 18 19 17 17 18 20 23 26 28 30 30 31 31 30 31 31 32 33 33 33 33 33 33 33 33 32 32 31 30 30 29 29 29 29 29 29 29 29 28 28 28 27
8 8 8 9 12 14 16 18 19 20 20 20 20 20 20 20 20 20 18 19 19 19 20 19 15 12 9 11 13 14 12 10 7 7 6 1 7 7 9 12 16 16 15 15 16 17 17 16 17 19 21 23 25 26 27 27 28 29 30 31 33 33 34 34 35 34 34 34 34 33 32 32 31 30 29 29 29 30 30 30 31 31 31 31 30
6 7 8 11 14 16 17 18 18 18 19 20 20 20 21 21 22 23 21 20 20 21 22 22 20 15 12 13 15 15 14 14 13 11 10 5 1 4 8 10 10 10 11 12 12 13 14 14 15 15 17 18 19 19 19 21 22 24 25 28 30 32 33 34 35 35 35 35 35 34 34 34 33 32 31 30 30 30 30 30 31 31 32 32 32
8 9 11 13 16 18 18 18 17 17 17 17 17 17 19 20 20 22 23 22 22 22 22 21 21 18 15 15 16 15 14 13 12 11 11 8 6 5 6 8 9 8 8 10 10 8 8 9 10 11 12 14 15 15 16 17 18 19 19 21 25 28 31 33 34 35 35 35 35 35 35 35 35 35 33 32 32 31 30 30 31 32 33 34 34
15 17 17 18 19 20 20 20 18 17 16 14 14 15 17 18 18 18 19 20 21 21 20 19 19 18 15 14 14 14 14 13 12 11 11 9 7 7 8 7 8 7 6 6 7 5 4 5 6 6 8 9 10 11 14 16 17 17 17 18 20 21 24 27 30 32 33 34 34 34 34 34 35 36 36 35 35 33 31 31 31 32 33 34 35
20 21 21 21 22 22 22 21 20 18 16 14 14 14 15 16 17 16 16 17 18 18 17 16 15 15 15 14 13 14 14 14 14 14 13 11 10 8 7 7 7 5 4 4 5 5 5 5 6 6 7 8 8 8 9 10 11 11 12 15 17 18 20 21 23 25 28 30 31 33 33 33 34 36 36 36 36 34 33 33 33 33 33 33 35
21 23 23 22 22 23 22 21 20 18 16 14 14 14 15 16 16 15 16 17 17 16 15 13 11 11 12 13 13 14 15 15 16 16 14 12 12 10 7 5 6 6 6 8 9 8 8 8 7 7 7 7 7 7 7 8 7 7 8 10 12 15 17 19 20 21 22 23 25 27 28 28 30 31 32 32 32 32 33 35 35 32 31 33 36
22 23 23 22 22 21 20 19 18 15 13 12 12 12 14 14 14 14 15 16 16 15 14 12 9 9 10 12 12 13 14 15 16 16 14 12 12 11 8 7 8 10 12 13 14 13 12 12 12 11 9 9 10 9 8 7 7 6 6 7 9 12 14 15 17 18 19 20 21 22 23 24 24 25 26 26 26 27 29 32 33 32 31 34 35
22 23 23 23 22 21 20 18 15 13 12 11 10 12 13 12 12 13 14 14 13 12 11 10 9 8 9 10 11 12 13 14 15 15 13 12 13 12 11 10 12 14 15 16 17 16 16 15 16 15 13 11 11 13 12 10 9 9 8 7 8 9 10 13 14 15 17 18 18 19 20 20 20 19 20 21 21 22 23 26 30 31 32 33 32
22 23 23 23 22 21 20 17 14 12 10 9 8 10 11 10 10 12 12 11 10 9 9 9 8 8 9 9 9 11 12 13 13 13 12 12 13 14 13 13 13 14 16 17 17 17 17 17 17 18 17 15 13 14 14 13 11 11 11 10 10 11 11 11 12 14 15 17 17 18 18 17 17 17 18 19 19 20 21 23 26 27 28 29 29
22 22 21 21 21 19 18 16 14 12 10 9 8 9 10 10 10 11 11 10 9 9 8 8 8 8 9 9 8 9 10 12 13 12 11 11 12 13 13 14 15 15 16 17 18 18 18 18 18 18 18 18 17 16 16 15 13 13 13 12 11 12 14 14 14 14 14 14 15 16 17 17 17 18 19 20 20 21 22 23 24 25 25 25 25
22 21 20 19 20 18 16 15 13 11 11 9 8 8 9 9 10 9 9 10 10 10 9 9 9 10 10 9 9 8 8 10 12 11 10 11 12 13 14 15 16 16 17 18 19 19 18 19 20 19 19 20 20 20 19 18 17 17 17 16 13 12 14 15 15 16 16 15 15 15 15 15 16 16 17 19 20 20 22 23 24 24 24 24 24
21 21 20 19 19 18 16 14 11 10 10 9 8 8 9 10 9 8 8 9 11 11 11 10 10 11 11 11 10 8 7 9 11 10 10 11 12 14 15 17 17 16 17 18 18 18 19 19 20 21 22 22 22 23 22 22 22 21 20 18 15 14 14 15 15 16 16 16 16 17 17 17 17 17 17 18 19 19 20 20 21 22 23 25 25
22 21 19 18 16 15 13 13 11 9 9 8 8 8 9 9 8 7 7 7 8 10 11 11 11 11 11 12 11 10 9 9 9 9 9 10 12 14 16 17 17 16 16 16 16 17 19 20 21 22 23 24 24 24 23 23 23 22 21 19 17 15 15 14 14 15 16 16 16 17 18 19 20 20 20 21 22 22 21 21 21 21 21 22 23
21 19 17 15 14 12 11 11 11 9 8 7 8 9 9 9 8 7 7 6 6 8 9 10 11 11 12 12 12 12 12 11 9 9 10 11 12 14 15 16 16 16 15 15 16 17 18 20 22 24 25 25 24 24 23 23 24 23 22 20 18 16 15 14 14 16 17 17 17 16 17 17 18 19 21 22 24 25 25 25 24 23 23 22 21
18 16 14 12 12 11 11 10 9 8 7 7 8 9 9 9 8 8 7 6 7 7 8 8 10 11 12 12 12 13 13 13 11 9 9 11 11 12 13 14 14 13 13 13 15 17 18 20 21 23 24 24 24 24 24 24 24 24 23 21 18 16 15 15 16 18 18 18 17 16 15 15 16 17 19 21 22 24 25 26 26 25 24 23 21
17 14 12 10 11 11 10 9 8 7 7 7 8 8 9 9 9 8 7 7 7 8 8 8 9 10 11 12 13 12 13 13 12 9 8 9 10 10 11 11 10 10 10 12 14 16 17 19 20 20 20 22 23 23 22 22 22 21 20 18 17 16 16 16 17 18 18 18 17 16 17 17 17 17 17 18 20 22 23 23 24 24 24 23 21
16 12 11 11 11 11 10 8 7 6 6 6 7 8 8 9 10 10 9 8 8 8 9 10 10 10 11 12 12 12 12 13 12 10 8 8 8 8 9 10 9 9 10 12 14 16 17 17 17 16 17 18 19 19 19 19 19 18 16 14 14 15 16 17 17 17 17 18 19 20 20 20 19 18 18 18 19 21 22 23 23 23 23 22 22
16 13 12 13 13 12 10 9 7 6 6 6 6 7 7 9 10 11 11 11 11 11 11 11 12 12 12 12 12 11 11 11 10 9 9 9 8 8 9 9 10 10 11 11 13 15 15 14 14 16 16 14 15 17 18 19 19 19 17 16 16 16 16 16 17 17 18 19 20 20 20 20 19 19 19 19 20 20 21 22 23 23 22 22 22
Wind_Direction
175 174 176 177 179 180 181 183 184 185 186 186 184 186 191 193 193 192 192 194 197 196 193 190 187 187 190 191 191 191 189 189 187 187 187 186 188 190 191 192 192 196 203 204 206 204 202 200 202 205 201 205 216 227 232 228 220 218 240 298 311 303 300 321 325 320 315 283 261 265 269 270 276 277 276 279 284 286 288 287 287 293 293 293 297
168 170 173 175 177 178 179 180 181 182 185 186 185 187 190 191 190 191 193 195 200 200 197 193 189 187 188 188 189 190 188 189 187 187 186 184 188 193 194 195 195 199 206 207 211 213 214 216 218 219 216 219 226 235 240 239 235 226 242 300 328 321 306 308 310 317 349 349 312 300 299 294 283 270 267 271 276 280 282 283 286 289 290 294 299
165 166 169 173 175 176 176 178 181 184 186 187 188 188 189 189 188 190 194 196 201 203 199 194 191 190 191 189 186 186 187 188 188 189 190 188 193 199 199 199 198 203 210 215 218 219 222 226 223 221 220 222 226 234 239 232 227 224 242 305 331 326 312 305 294 297 347 352 356 337 330 338 310 282 280 275 269 271 274 276 281 286 288 293 296
166 166 167 170 171 173 175 178 181 183 184 187 188 188 189 189 187 190 194 196 200 202 199 194 188 186 187 185 184 187 189 188 192 196 197 198 203 209 211 207 206 210 218 223 225 226 230 233 229 225 223 222 222 227 230 222 216 218 238 300 325 326 324 320 288 273 315 320 340 331 338 16 327 305 318 303 271 261 265 269 274 279 284 288 290
165 167 168 168 169 174 177 178 179 180 184 188 189 189 190 190 189 190 193 195 199 199 195 189 183 181 180 180 182 187 190 192 198 203 206 212 213 213 215 214 211 213 220 226 228 230 234 235 234 230 223 220 224 226 219 215 214 218 237 283 318 321 324 327 304 278 296 294 280 303 351 357 271 308 334 324 295 270 265 268 270 272 277 282 286
164 167 169 168 170 174 177 178 176 179 186 190 191 191 192 193 191 192 192 192 194 192 189 186 183 184 184 182 182 184 188 194 200 201 204 211 213 212 213 213 211 212 217 224 227 228 231 234 235 232 225 221 229 229 213 210 214 219 236 262 310 320 318 325 320 294 288 286 275 290 312 289 272 311 337 323 324 313 287 278 271 269 271 274 280
163 167 167 168 171 172 176 179 177 180 188 191 192 191 193 195 193 194 193 190 188 186 187 187 188 194 193 188 186 186 189 195 201 202 201 205 207 209 210 209 209 211 214 221 225 225 228 233 233 230 225 222 230 229 213 209 213 221 234 247 304 334 330 339 338 315 315 317 291 303 313 298 288 300 292 311 326 337 352 340 304 279 271 270 276
161 168 168 170 172 173 177 181 180 182 186 189 191 191 194 197 195 196 196 194 191 188 190 192 196 202 201 197 194 193 195 197 200 204 204 205 205 207 208 207 207 209 212 216 219 221 226 228 227 227 223 221 226 226 218 215 217 223 231 242 289 340 345 357 4 359 3 353 334 334 341 349 340 311 330 348 327 313 350 358 350 315 280 270 272
162 170 172 173 175 178 180 181 182 182 184 188 190 192 195 197 198 198 199 201 200 197 198 200 203 206 203 202 201 199 202 203 202 204 207 208 208 207 208 208 206 205 209 212 213 216 221 223 222 223 222 221 226 226 221 220 220 221 226 239 265 301 316 338 356 13 15 6 2 8 13 15 19 35 14 0 11 47 331 322 346 337 296 276 274
166 171 173 175 178 180 180 179 180 182 184 187 188 191 193 196 199 200 202 204 204 204 205 205 208 211 206 204 204 202 204 205 203 205 208 209 210 209 210 211 206 203 207 213 217 218 218 219 217 218 220 220 224 225 220 220 222 222 226 238 256 276 284 300 319 330 359 7 11 18 22 24 25 22 3 359 360 5 319 293 333 340 296 289 285
173 171 175 178 179 180 179 178 179 181 183 184 186 189 191 195 199 201 203 205 204 206 208 207 211 217 216 214 211 206 204 203 203 205 207 208 209 210 212 212 207 206 212 217 221 221 218 215 213 214 215 216 219 221 221 223 224 227 233 240 254 271 270 269 283 296 318 352 13 20 23 25 22 7 358 354 334 301 310 305 331 340 300 294 302
167 172 175 176 176 176 176 178 179 178 180 182 185 188 190 194 197 199 203 204 204 206 207 209 213 219 225 225 217 211 208 207 207 209 210 210 210 210 211 210 209 212 220 223 222 220 218 213 212 213 212 214 216 219 223 227 230 235 239 243 253 267 266 261 269 280 290 319 2 16 19 19 13 5 1 356 339 305 285 297 335 351 330 320 334
94 164 175 173 173 175 177 178 178 178 180 183 185 186 189 192 195 198 201 203 204 206 205 209 215 220 225 224 217 213 212 212 214 215 215 215 213 211 209 208 209 214 221 223 222 220 219 213 212 215 213 214 217 218 223 229 234 238 241 247 258 268 266 263 269 274 281 302 338 359 9 12 5 360 0 2 6 6 329 313 334 347 337 344 352
115 146 172 178 178 178 178 178 179 181 183 183 185 187 188 190 194 197 200 201 203 205 205 209 216 219 220 219 217 215 215 216 217 219 220 220 219 217 215 211 210 214 218 220 221 221 221 217 216 218 217 218 221 221 222 227 234 236 240 250 261 267 265 269 277 275 275 288 308 334 350 1 358 354 354 359 11 24 18 358 346 336 328 346 8
112 118 147 181 185 183 180 180 182 183 184 184 186 187 188 190 194 197 199 199 201 204 207 211 215 215 215 216 216 215 215 216 218 220 223 224 224 224 221 217 215 217 218 220 221 222 222 218 219 221 220 223 224 221 220 223 228 231 237 247 253 257 264 272 280 277 275 279 285 310 331 344 345 345 349 349 355 9 21 20 13 11 353 342 358
117 112 123 152 177 184 185 184 185 185 185 186 187 188 189 192 194 197 199 200 201 203 207 212 215 215 214 215 216 214 214 218 221 224 227 229 229 228 226 222 221 222 222 223 223 224 222 217 217 219 218 220 221 218 219 221 226 232 238 246 246 249 261 272 275 273 274 276 278 293 310 324 330 333 340 343 346 352 6 13 8 20 32 353 347
175 139 140 134 141 165 183 188 189 188 187 188 190 191 193 194 194 196 199 201 201 204 206 210 214 216 216 216 216 215 216 222 226 227 230 232 231 231 230 227 225 227 228 228 225 223 223 219 216 215 213 215 217 218 219 220 227 237 243 247 246 246 257 269 274 274 276 277 275 283 295 308 319 325 327 330 341 347 349 348 344 351 13 21 15
161 154 170 147 133 148 172 185 190 191 192 193 194 195 195 195 195 195 198 200 202 204 206 209 212 215 217 218 218 217 219 225 230 232 232 230 230 232 232 230 230 231 232 232 228 226 228 225 219 217 216 216 218 219 222 223 228 239 246 245 243 246 257 266 273 275 275 277 277 278 284 295 310 322 324 319 327 341 341 336 332 330 332 318 191
161 172 184 156 138 144 157 170 183 190 195 198 198 197 197 197 198 198 200 203 203 204 205 208 211 214 216 219 220 219 221 225 229 234 234 231 230 232 233 234 235 235 234 234 233 232 235 232 227 226 227 226 225 223 225 228 232 239 244 244 242 246 255 259 263 265 267 273 278 277 279 284 298 313 321 318 316 328 334 333 327 320 319 306 262
164 176 178 160 149 148 145 149 164 178 191 198 199 199 198 197 199 200 202 204 203 204 205 207 210 213 216 219 219 218 219 223 227 231 234 233 233 233 234 236 238 239 239 238 238 238 239 237 235 235 236 236 234 231 228 230 237 241 242 243 242 244 252 255 255 253 254 264 273 275 275 274 282 294 302 306 305 308 313 317 317 314 308 291 284
139 156 158 158 160 158 146 143 150 158 170 185 194 198 198 199 200 200 202 203 204 206 207 208 211 213 216 218 218 217 216 220 224 228 232 233 233 234 235 238 240 240 242 243 242 242 241 241 242 242 244 242 240 238 235 234 238 241 241 241 240 240 245 249 249 248 249 258 269 273 269 263 269 283 285 290 296 299 298 295 295 299 298 292 295
132 134 132 138 145 143 139 145 151 143 138 149 166 180 186 193 200 202 203 204 206 207 209 211 213 213 216 219 219 218 216 218 222 225 230 231 232 233 236 240 242 241 241 243 245 244 242 243 246 246 245 243 241 241 239 237 238 239 239 239 239 239 240 242 245 247 248 255 264 269 265 255 259 273 275 278 288 295 296 291 282 281 287 293 301
122 122 118 111 111 115 121 133 142 137 134 133 137 157 174 187 199 205 208 209 210 210 211 212 212 213 216 220 222 222 220 220 222 226 230 231 232 234 236 239 242 244 243 243 245 245 242 243 245 244 242 240 239 240 238 236 239 240 238 237 237 239 242 243 244 244 245 251 258 263 262 255 255 263 267 269 276 285 293 292 283 277 279 283 292
96 105 110 102 97 98 99 107 122 132 140 139 145 164 170 178 194 202 204 205 207 210 212 211 212 214 216 218 222 225 225 226 226 228 231 233 235 236 236 239 242 245 246 244 246 246 243 243 244 243 242 240 240 241 240 239 240 242 242 241 240 242 246 248 248 248 247 251 257 259 261 261 261 263 265 266 267 273 283 288 285 280 278 279 284
91 94 97 95 95 99 104 116 134 144 149 148 151 159 148 149 185 195 193 195 200 204 207 208 212 216 218 217 218 222 227 230 231 232 233 236 238 238 239 240 241 244 247 247 247 247 245 245 247 247 246 246 245 245 245 245 245 245 246 248 248 248 249 250 251 253 254 256 258 259 262 266 269 271 271 270 268 268 274 279 280 281 280 281 284
93 87 88 91 95 106 115 122 132 147 160 152 134 131 137 157 182 187 188 200 205 201 199 208 216 219 219 218 217 218 222 226 230 233 236 238 240 240 241 242 242 242 244 246 247 247 247 246 249 251 250 250 251 250 249 251 252 250 250 251 253 254 254 253 253 255 257 259 261 261 262 264 268 273 276 276 273 270 271 274 276 277 279 281 283
90 83 84 88 87 89 100 112 123 140 165 148 108 111 134 157 167 174 189 206 209 199 189 204 218 221 220 219 219 219 218 219 223 228 234 238 241 242 242 244 244 243 244 246 246 247 247 247 248 250 250 251 252 251 251 252 254 254 253 252 254 256 257 257 256 256 257 259 262 263 263 263 264 268 272 274 274 273 273 276 277 278 279 280 282
89 83 80 80 84 89 97 111 125 123 111 105 107 116 128 136 141 159 187 206 212 204 197 207 218 226 228 225 225 224 218 215 218 223 228 233 238 243 245 246 246 246 247 247 246 246 247 248 249 249 250 251 251 250 249 248 249 251 252 252 254 257 259 259 260 260 260 260 262 264 264 264 264 266 267 268 269 270 273 277 278 280 282 282 282
90 86 82 79 80 86 93 100 102 97 95 94 94 101 109 115 126 144 169 194 206 202 199 210 221 236 242 237 234 233 228 223 224 226 228 229 232 240 247 248 247 247 249 249 247 246 246 247 249 250 250 250 250 250 249 249 249 249 249 251 254 256 258 259 260 262 262 262 263 265 266 266 267 268 269 269 268 269 271 275 277 280 282 283 283
88 82 77 79 77 78 83 87 86 84 85 85 85 88 92 97 107 112 114 146 188 198 197 206 221 240 249 245 239 237 237 235 235 235 236 233 232 232 239 247 247 245 246 248 246 246 246 247 248 249 250 249 249 251 253 253 253 253 253 253 254 256 258 259 260 261 262 263 263 265 267 268 269 270 271 272 271 271 271 272 275 277 280 282 282
90 83 78 77 78 78 77 78 80 79 77 79 81 83 86 88 88 80 73 85 119 148 150 154 178 213 232 238 240 241 247 253 254 254 252 247 242 237 236 247 250 241 236 239 241 241 242 245 248 249 250 250 250 252 254 255 256 257 258 257 257 258 259 260 261 261 263 265 265 266 269 270 270 271 271 272 274 273 272 271 271 273 275 279 280
99 91 84 76 74 78 78 78 81 81 78 77 79 80 81 83 84 80 73 74 83 90 91 93 94 93 109 129 143 175 204 245 275 288 279 262 255 253 251 254 256 250 238 232 233 234 237 241 245 248 250 251 252 254 255 256 257 258 259 259 259 260 260 261 263 264 265 267 268 270 271 272 273 273 273 274 274 274 273 271 270 270 271 274 276
103 97 91 82 76 78 82 84 85 85 83 81 81 81 81 81 84 85 83 78 75 74 72 70 65 58 64 72 74 83 93 98 106 60 355 266 250 254 254 250 252 253 248 238 231 231 235 238 241 245 249 250 253 256 257 258 259 260 260 259 258 258 259 261 263 265 267 269 270 272 273 274 277 277 277 276 276 276 276 274 273 272 271 271 272
101 97 91 85 82 84 88 90 92 92 90 86 84 85 85 84 82 82 82 80 75 71 67 66 67 62 54 52 54 59 63 57 55 62 59 242 237 248 252 247 245 248 251 250 240 233 234 237 239 243 247 250 252 255 257 258 259 260 261 260 260 259 259 260 262 264 266 268 270 271 272 275 278 279 279 279 279 280 280 279 277 276 275 275 273
103 97 92 89 92 96 95 94 94 96 94 89 86 86 84 81 77 74 74 74 72 69 65 65 66 64 56 51 51 54 58 56 53 55 58 58 301 283 275 268 263 256 257 263 257 243 238 241 245 246 248 250 251 253 255 256 257 259 260 261 261 261 261 261 261 263 264 266 269 270 271 274 277 279 281 281 281 281 281 280 280 279 279 279 278
110 102 98 97 99 103 102 97 95 98 98 93 87 83 80 76 72 68 66 65 65 63 61 61 62 60 53 47 48 52 56 57 55 53 51 48 38 20 342 304 294 290 282 278 274 262 251 253 258 261 264 263 259 256 254 254 255 257 260 262 262 262 262 262 262 263 262 263 266 268 269 272 275 278 281 283 283 282 279 278 278 279 280 280 280
110 105 102 100 102 106 106 102 97 96 100 100 92 82 76 72 68 65 62 60 57 54 52 54 56 55 50 43 42 47 48 48 48 47 45 41 37 36 26 356 320 303 301 299 298 304 307 297 295 298 299 296 287 276 269 265 265 266 267 268 270 271 270 268 267 266 265 264 264 265 268 270 273 277 280 283 284 283 280 278 277 277 278 278 280
110 108 103 99 100 103 104 103 98 92 95 102 99 89 79 70 64 61 60 57 51 46 44 46 47 47 46 43 41 42 40 37 36 36 36 35 33 34 35 19 349 326 335 354 354 1 7 356 347 345 342 336 327 315 303 292 284 281 280 278 278 280 280 278 277 276 273 270 269 269 269 269 271 274 278 280 282 282 281 280 278 277 276 276 279
109 108 103 100 101 101 99 98 93 87 89 97 98 92 82 70 61 59 57 51 45 41 39 38 38 38 38 37 36 37 36 33 30 27 27 29 29 34 46 40 16 13 27 33 31 32 33 28 18 10 6 360 351 338 326 319 310 299 296 292 286 285 285 285 285 286 285 283 281 280 278 276 276 278 280 282 283 282 280 279 278 276 273 274 278
109 108 105 103 102 99 94 89 83 81 85 91 95 90 79 67 61 59 52 43 38 37 39 42 44 42 36 28 23 24 27 28 25 22 25 30 30 34 54 67 55 52 51 47 45 45 43 40 36 30 24 15 8 1 349 341 339 331 319 313 304 298 297 296 294 291 289 287 285 284 284 283 283 283 284 284 284 283 282 281 278 273 269 273 279
111 110 106 102 98 94 89 84 80 81 82 83 89 85 72 63 58 52 42 33 29 32 40 48 51 44 36 29 23 18 18 22 23 22 27 38 40 42 56 67 59 51 47 43 41 40 37 35 36 35 31 22 15 11 6 2 5 2 351 344 341 332 320 311 304 298 295 293 290 289 290 291 290 289 288 287 287 287 286 283 279 275 274 277 280
110 110 108 104 98 94 91 85 80 79 74 68 75 71 59 54 51 43 31 20 16 20 27 36 40 34 28 28 27 18 11 11 17 21 26 37 45 49 54 55 47 39 36 36 34 30 26 25 28 32 32 29 24 18 10 4 5 9 8 6 6 3 352 335 321 309 301 298 297 297 299 296 291 288 286 286 287 288 287 285 284 282 282 282 282
109 109 110 108 101 94 90 85 78 73 66 56 54 52 45 43 41 33 20 8 1 360 2 9 16 18 19 20 21 18 10 4 8 17 20 23 31 38 40 38 34 29 29 31 29 25 19 16 17 21 23 22 20 20 20 15 10 9 11 8 1 358 354 349 346 339 325 311 301 295 291 285 280 279 281 282 283 283 282 283 284 286 287 287 286
112 112 113 112 106 99 92 87 79 72 67 59 52 49 43 36 29 20 13 7 359 351 348 350 355 360 4 7 8 10 8 360 1 10 17 18 20 24 26 25 24 24 25 25 25 23 19 15 13 12 12 12 10 10 15 18 15 11 8 3 355 350 348 347 347 347 341 331 321 311 304 298 292 289 288 286 285 284 283 281 282 283 285 287 287
116 118 117 114 110 106 99 93 85 77 73 66 60 57 47 34 25 16 9 6 3 359 352 346 345 349 351 353 356 1 4 358 355 357 5 12 14 13 14 13 14 17 20 19 21 22 21 17 14 10 7 5 2 0 4 9 10 8 6 2 356 353 353 350 346 343 338 332 326 320 316 315 311 307 303 299 295 293 291 290 288 287 286 286 286
121 121 120 116 112 106 101 97 89 84 80 69 56 49 40 29 23 18 13 7 2 1 359 353 349 346 345 345 348 352 356 356 351 346 349 357 0 2 4 5 7 11 15 19 22 22 18 14 10 6 1 358 356 358 2 4 5 5 5 4 1 358 358 356 350 345 341 337 332 326 321 318 315 313 310 307 305 303 302 300 299 298 296 294 292
125 124 123 119 111 104 103 100 91 82 74 56 36 24 17 10 4 4 8 6 358 356 356 354 352 349 346 345 346 348 351 351 345 339 338 338 342 350 356 1 4 7 12 19 21 19 15 10 5 359 355 353 355 359 2 0 359 359 1 2 2 1 0 359 353 348 346 345 340 335 331 326 322 318 313 309 307 306 306 305 304 304 303 301 299
129 129 124 116 107 104 104 98 86 69 50 33 22 17 12 4 357 352 349 345 349 354 355 353 353 352 349 347 346 347 350 351 347 337 331 331 337 346 354 0 5 7 10 15 13 11 9 6 2 358 355 353 356 1 2 358 355 355 356 358 1 2 360 358 353 348 348 348 344 341 342 341 337 328 320 314 310 307 305 304 304 304 305 305 305
134 132 126 116 111 112 109 98 81 63 41 31 32 33 28 22 16 8 357 350 353 358 358 356 353 348 344 343 342 343 347 350 351 347 334 331 339 349 352 355 0 1 2 4 4 3 1 359 359 2 1 357 358 2 4 2 358 357 357 358 1 2 1 359 356 352 350 352 355 357 359 356 350 342 332 324 319 313 308 306 303 303 303 303 303
140 133 127 122 122 124 121 107 89 70 55 49 47 42 33 26 22 18 16 13 10 6 2 359 356 351 345 340 338 338 341 343 346 348 339 329 335 345 346 345 344 341 343 349 351 351 353 355 360 4 6 6 9 13 13 10 8 10 13 13 11 8 5 2 360 357 359 4 6 6 2 356 351 346 340 333 327 320 314 309 306 303 301 299 298
146 140 135 133 135 139 136 125 110 93 78 71 60 45 33 22 16 14 14 13 12 10 6 3 3 2 358 353 345 341 341 340 339 341 339 333 333 337 333 328 327 328 332 337 339 340 346 357 4 5 7 16 22 19 15 13 13 14 18 19 16 12 10 8 7 8 14 17 14 9 4 360 356 352 348 344 340 335 328 321 315 310 305 300 297